When you browse on this site, cookies collect data to enhance your experience and personalize the content and advertising you see.
Visit our Privacy Policy to learn more. By continuing to use the site, you agree to this use of cookies and data.
  • en Suisse
  • Liste des pays
  • À 7 jours
  • Température de l'eau
  • Carte météo
  • Widgets météo
  • user-avatar
    Se connecter

    Météo par heure à Chichester

    Ce jour, 23 Septembre, Lundi

    Heure Température Précipitation Vent Pression Humidité
    00:00 +14°C° 0 mm 6 m/s 754 mmHg 91%
    01:00 +14°C° 0 mm 7 m/s 754 mmHg 91%
    02:00 +14°C° 0 mm 7 m/s 755 mmHg 91%
    03:00 +12°C° 0 mm 7 m/s 755 mmHg 92%
    04:00 +13°C° 0 mm 6 m/s 755 mmHg 91%
    05:00 +13°C° 0 mm 6 m/s 756 mmHg 90%
    06:00 +12°C° 0 mm 4 m/s 757 mmHg 89%
    07:00 +14°C° 0.1 mm 5 m/s 757 mmHg 83%
    08:00 +15°C° 0.1 mm 6 m/s 757 mmHg 78%
    09:00 +17°C° 0.1 mm 7 m/s 757 mmHg 73%
    10:00 +17°C° 0.2 mm 7 m/s 757 mmHg 74%
    11:00 +17°C° 0.2 mm 8 m/s 757 mmHg 75%
    12:00 +17°C° 0.2 mm 8 m/s 757 mmHg 77%
    13:00 +17°C° 0.2 mm 8 m/s 757 mmHg 76%
    14:00 +17°C° 0.2 mm 8 m/s 756 mmHg 75%
    15:00 +17°C° 0.2 mm 8 m/s 756 mmHg 75%
    16:00 +17°C° 1 mm 8 m/s 756 mmHg 80%
    17:00 +16°C° 1 mm 9 m/s 756 mmHg 86%
    18:00 +15°C° 1 mm 9 m/s 755 mmHg 92%
    19:00 +16°C° 0.7 mm 9 m/s 755 mmHg 92%
    20:00 +16°C° 0.7 mm 9 m/s 755 mmHg 93%
    21:00 +17°C° 0.7 mm 9 m/s 755 mmHg 94%
    22:00 +17°C° 0.2 mm 8 m/s 755 mmHg 94%
    23:00 +17°C° 0.2 mm 8 m/s 754 mmHg 94%

    Demain, 24 Septembre, Mardi

    Heure Température Précipitation Vent Pression Humidité
    00:00 +17°C° 0.2 mm 8 m/s 754 mmHg 93%
    01:00 +17°C° 0.4 mm 8 m/s 753 mmHg 93%
    02:00 +17°C° 0.4 mm 8 m/s 753 mmHg 93%
    03:00 +17°C° 0.4 mm 8 m/s 752 mmHg 93%
    04:00 +17°C° 1.8 mm 8 m/s 751 mmHg 93%
    05:00 +17°C° 1.8 mm 9 m/s 751 mmHg 94%
    06:00 +17°C° 1.8 mm 9 m/s 750 mmHg 94%
    07:00 +17°C° 3.9 mm 9 m/s 750 mmHg 93%
    08:00 +17°C° 3.9 mm 9 m/s 749 mmHg 93%
    09:00 +17°C° 3.9 mm 9 m/s 749 mmHg 92%
    10:00 +17°C° 1.2 mm 9 m/s 749 mmHg 87%
    11:00 +18°C° 1.2 mm 8 m/s 749 mmHg 81%
    12:00 +20°C° 1.2 mm 8 m/s 749 mmHg 76%
    13:00 +20°C° 0.3 mm 8 m/s 749 mmHg 75%
    14:00 +18°C° 0.3 mm 9 m/s 749 mmHg 75%
    15:00 +18°C° 0.3 mm 10 m/s 750 mmHg 74%
    16:00 +17°C° 0 mm 9 m/s 750 mmHg 77%
    17:00 +16°C° 0 mm 9 m/s 750 mmHg 79%
    18:00 +15°C° 0 mm 8 m/s 750 mmHg 81%
    19:00 +15°C° 0.2 mm 8 m/s 750 mmHg 82%
    20:00 +15°C° 0.2 mm 8 m/s 750 mmHg 83%
    21:00 +15°C° 0.2 mm 8 m/s 751 mmHg 84%
    22:00 +15°C° 0.5 mm 9 m/s 750 mmHg 87%
    23:00 +15°C° 0.5 mm 9 m/s 750 mmHg 89%

    Après-demain, 25 Septembre, Mercredi

    Heure Température Précipitation Vent Pression Humidité
    00:00 +14°C° 0.5 mm 10 m/s 749 mmHg 91%
    01:00 +14°C° 1 mm 10 m/s 749 mmHg 90%
    02:00 +15°C° 1 mm 9 m/s 748 mmHg 89%
    03:00 +15°C° 1 mm 9 m/s 748 mmHg 88%
    04:00 +14°C° 0.7 mm 10 m/s 748 mmHg 89%
    05:00 +14°C° 0.7 mm 11 m/s 748 mmHg 89%
    06:00 +14°C° 0.7 mm 11 m/s 747 mmHg 90%
    07:00 +14°C° 1 mm 11 m/s 748 mmHg 89%
    08:00 +14°C° 1 mm 11 m/s 748 mmHg 88%
    09:00 +16°C° 1 mm 11 m/s 748 mmHg 88%
    10:00 +16°C° 0.2 mm 10 m/s 749 mmHg 86%
    11:00 +17°C° 0.2 mm 10 m/s 749 mmHg 84%
    12:00 +17°C° 0.2 mm 10 m/s 750 mmHg 82%
    13:00 +17°C° 0.1 mm 9 m/s 750 mmHg 81%
    14:00 +18°C° 0.1 mm 9 m/s 750 mmHg 80%
    15:00 +18°C° 0.1 mm 8 m/s 751 mmHg 79%
    16:00 +17°C° 0 mm 8 m/s 751 mmHg 81%
    17:00 +16°C° 0 mm 7 m/s 751 mmHg 84%
    18:00 +16°C° 0 mm 7 m/s 752 mmHg 86%
    19:00 +15°C° 0 mm 6 m/s 752 mmHg 88%
    20:00 +15°C° 0 mm 6 m/s 752 mmHg 91%
    21:00 +15°C° 0 mm 6 m/s 752 mmHg 93%
    22:00 +15°C° 0.1 mm 6 m/s 752 mmHg 93%
    23:00 +16°C° 0.1 mm 6 m/s 752 mmHg 94%

    26 Septembre, Jeudi

    Heure Température Précipitation Vent Pression Humidité
    00:00 +16°C° 0.1 mm 6 m/s 752 mmHg 95%
    01:00 +16°C° 0.2 mm 7 m/s 752 mmHg 94%
    02:00 +17°C° 0.2 mm 8 m/s 752 mmHg 93%
    03:00 +17°C° 0.2 mm 8 m/s 752 mmHg 92%
    04:00 +17°C° 0.1 mm 8 m/s 752 mmHg 91%
    05:00 +17°C° 0.1 mm 8 m/s 752 mmHg 91%
    06:00 +16°C° 0.1 mm 8 m/s 752 mmHg 91%
    07:00 +17°C° 0.1 mm 9 m/s 753 mmHg 90%
    08:00 +17°C° 0.1 mm 9 m/s 753 mmHg 90%
    09:00 +17°C° 0.1 mm 9 m/s 753 mmHg 89%
    10:00 +17°C° 0.9 mm 8 m/s 753 mmHg 88%
    11:00 +17°C° 0.9 mm 8 m/s 753 mmHg 86%
    12:00 +17°C° 0.9 mm 7 m/s 754 mmHg 85%
    13:00 +17°C° 0 mm 8 m/s 754 mmHg 82%
    14:00 +17°C° 0 mm 8 m/s 754 mmHg 78%
    15:00 +17°C° 0 mm 9 m/s 754 mmHg 75%
    16:00 +16°C° 0 mm 8 m/s 754 mmHg 76%
    17:00 +16°C° 0 mm 8 m/s 754 mmHg 76%
    18:00 +15°C° 0 mm 8 m/s 754 mmHg 77%
    19:00 +13°C° 0 mm 8 m/s 754 mmHg 78%
    20:00 +14°C° 0 mm 7 m/s 755 mmHg 79%
    21:00 +14°C° 0 mm 7 m/s 755 mmHg 80%
    22:00 +12°C° 0.1 mm 7 m/s 755 mmHg 81%
    23:00 +12°C° 0.1 mm 7 m/s 755 mmHg 82%

    27 Septembre, Vendredi

    Heure Température Précipitation Vent Pression Humidité
    00:00 +12°C° 0.1 mm 7 m/s 755 mmHg 83%
    01:00 +12°C° 0.3 mm 7 m/s 755 mmHg 84%
    02:00 +12°C° 0.3 mm 7 m/s 755 mmHg 84%
    03:00 +12°C° 0.3 mm 7 m/s 755 mmHg 85%
    04:00 +12°C° 0.1 mm 7 m/s 755 mmHg 85%
    05:00 +12°C° 0.1 mm 7 m/s 755 mmHg 85%
    06:00 +11°C° 0.1 mm 7 m/s 755 mmHg 85%
    07:00 +12°C° 0.1 mm 7 m/s 755 mmHg 81%
    08:00 +15°C° 0.1 mm 8 m/s 755 mmHg 78%
    09:00 +16°C° 0.1 mm 8 m/s 755 mmHg 74%
    10:00 +16°C° 0.1 mm 9 m/s 755 mmHg 73%
    11:00 +16°C° 0.1 mm 10 m/s 755 mmHg 73%
    12:00 +17°C° 0.1 mm 10 m/s 755 mmHg 72%
    13:00 +16°C° 0.2 mm 10 m/s 755 mmHg 72%
    14:00 +16°C° 0.2 mm 10 m/s 754 mmHg 72%
    15:00 +16°C° 0.2 mm 10 m/s 754 mmHg 73%
    16:00 +14°C° 0.2 mm 10 m/s 754 mmHg 74%
    17:00 +15°C° 0.2 mm 9 m/s 754 mmHg 76%
    18:00 +13°C° 0.2 mm 9 m/s 754 mmHg 78%
    19:00 +13°C° 0.1 mm 9 m/s 755 mmHg 79%
    20:00 +12°C° 0.1 mm 8 m/s 755 mmHg 80%
    21:00 +12°C° 0.1 mm 8 m/s 755 mmHg 80%
    22:00 +12°C° 0.1 mm 8 m/s 755 mmHg 80%
    23:00 +12°C° 0.1 mm 8 m/s 755 mmHg 79%

    28 Septembre, Samedi

    Heure Température Précipitation Vent Pression Humidité
    00:00 +12°C° 0.1 mm 8 m/s 755 mmHg 79%
    01:00 +12°C° 0.1 mm 8 m/s 755 mmHg 80%
    02:00 +12°C° 0.1 mm 8 m/s 755 mmHg 81%
    03:00 +12°C° 0.1 mm 8 m/s 755 mmHg 82%
    04:00 +12°C° 0.1 mm 8 m/s 755 mmHg 83%
    05:00 +12°C° 0.1 mm 8 m/s 755 mmHg 83%
    06:00 +12°C° 0.1 mm 8 m/s 755 mmHg 83%
    07:00 +13°C° 0.1 mm 9 m/s 756 mmHg 80%
    08:00 +13°C° 0.1 mm 9 m/s 756 mmHg 77%
    09:00 +15°C° 0.1 mm 9 m/s 756 mmHg 74%
    10:00 +14°C° 0.2 mm 10 m/s 756 mmHg 74%
    11:00 +14°C° 0.2 mm 10 m/s 757 mmHg 75%
    12:00 +16°C° 0.2 mm 10 m/s 757 mmHg 75%
    13:00 +15°C° 0.1 mm 9 m/s 756 mmHg 74%
    14:00 +15°C° 0.1 mm 9 m/s 756 mmHg 74%
    15:00 +15°C° 0.1 mm 9 m/s 756 mmHg 74%
    16:00 +15°C° 0 mm 8 m/s 756 mmHg 75%
    17:00 +15°C° 0 mm 8 m/s 756 mmHg 76%
    18:00 +14°C° 0 mm 7 m/s 756 mmHg 78%
    19:00 +14°C° 0 mm 7 m/s 756 mmHg 78%
    20:00 +14°C° 0 mm 7 m/s 756 mmHg 79%
    21:00 +13°C° 0 mm 6 m/s 756 mmHg 79%
    22:00 +13°C° 0.1 mm 6 m/s 756 mmHg 81%
    23:00 +11°C° 0.1 mm 6 m/s 756 mmHg 82%
    Voir plus